Location: ??????????
(54.4061°N, 22.6114°E)
Time: 15:30:28
(UTC+00:00)

Cosmos 2233 Rocket - Pass Details

Date: 23 October 2019
Orbit: 954 x 990 km, 82.9° (Epoch: 13 November)

Event Time Altitude Azimuth Distance (km) Brightness Sun altitude
Rises 18:27:14 0° 348° (NNW) 3,698 7.5 -28.4°
Reaches altitude 10° 18:29:46 10° 346° (NNW) 2,750 6.7 -28.7°
Maximum altitude 18:36:03 74° 264° (W) 1,032 4.1 -29.6°
Enters shadow 18:37:21 57° 201° (SSW) 1,159 4.2 -29.8°
